Tracking 18957 objects as of 23-Jan-2018
HD Live streaming from Space Station
objects crossing your sky now

SL-16 DEB

Track SL-16 DEB now!
10-day predictions


NORAD ID: 23408
Int'l Code: 1994-077E
Perigee: 848.2 km
Apogee: 1,160.8 km
Inclination: 71.0 °
Period: 105.1 minutes
Semi major axis: 7375 km
RCS: 0.0824 m2 (small)
Launch date: November 24, 1994
Source: Commonwealth of Independent States (former USSR) (CIS)
Launch site: TYURATAM MISSILE AND SPACE COMPLEX (TTMTR)

Note: This is SATELLITE DEBRIS
aabbcc
Your satellite tracking list
Your tracking list is empty




NASA's NSSDC Master Catalog

Two Line Element Set (TLE):
1 23408U 94077E   18022.92444750 +.00000022 +00000-0 +61127-4 0  9997
2 23408 070.9885 309.6483 0211958 037.4927 028.3746 13.70611290158360
Source of the keplerian elements: AFSPC